Regional Weather Roundup
Issued by NWS Cleveland, OH

Home | Current Version | Previous Version | Text Only | Print | Product List | Glossary Off
Versions: 1 2 3 4 5 6 7 8 9 10 11 12 13 14 15 16 17 18 19 20 21 22 23 24 25 26 27 28 29 30 31 32 33 34 35 36 37 38 39 40 41 42 43 44 45 46 47 48 49 50

000
ASUS41 KCLE 190310
RWRCLE
OHIO REGIONAL WEATHER ROUNDUP
NATIONAL WEATHER SERVICE CLEVELAND, OH
1100 PM EDT THU SEP 18 2014

NOTE: "FAIR" INDICATES FEW OR NO CLOUDS BELOW 12,000 FEET WITH NO
SIGNIFICANT WEATHER AND/OR OBSTRUCTIONS TO VISIBILITY.

OHZ001>008-015>018-024>027-034-035-043-044-190400-
   NORTHWEST OHIO

CITY           SKY/WX    TMP DP  RH WIND       PRES   REMARKS
DEFIANCE       CLEAR     57  51  80 E6        30.18R
FINDLAY        CLEAR     57  51  80 E7        30.17R
TOLEDO EXPRESS MOCLDY    55  52  88 NE5       30.19R
TOLEDO EXEC    CLOUDY    58  52  80 NE6       30.20R
LIMA           CLEAR     53  49  86 E7        30.17R
$$

OHZ009>014-019>023-028>033-038-089-190400-
   NORTHEAST OHIO

CITY           SKY/WX    TMP DP  RH WIND       PRES   REMARKS
CLE-HOPKINS    MOCLDY    58  51  78 NE5       30.20R
CLE-LAKEFRONT  CLOUDY    60  52  74 N13       30.18R
CUY CO. ARPT   MOCLDY    54  52  94 E6        30.19R
LORAIN-ELYRIA  CLOUDY    55  51  86 CALM      30.19R FOG
ASHTABULA      MOCLDY    51  49  92 CALM      30.19S
AKRON-CANTON   CLEAR     52  47  83 NE5       30.18R
WOOSTER        CLEAR     52  47  83 NE5       30.19R
MANSFIELD      CLEAR     51  50  96 CALM      30.19R
YOUNGSTOWN     CLEAR     49  47  93 NE3       30.18R
$$

OHZ042-051>053-060>062-070>072-077>081-190400-
  SOUTHWEST OHIO

CITY           SKY/WX    TMP DP  RH WIND       PRES   REMARKS
CINC-COVINGTON CLEAR     60  46  59 E7        30.13R
CINC-LUNKEN    CLEAR     53  51  93 N5        30.14R
HAMILTON       CLEAR     52  50  93 CALM      30.14R
DAYTON         CLEAR     58  49  72 E8        30.16R
WRIGHT-PAT AFB CLEAR     55  48  79 N2        30.15R
DAYTON GENERAL CLEAR     57  49  74 E5        30.13R
WILMINGTON     CLEAR     54  46  74 E5        30.14R
$$

OHZ036-037-039>041-045>050-054>059-063>069-073>076-082>088-190400-
  CENTRAL AND SOUTHEAST OHIO

CITY           SKY/WX    TMP DP  RH WIND       PRES   REMARKS
COLUMBUS       CLEAR     60  49  66 NE6       30.15R
OSU AIRPORT    CLEAR     56  49  77 NE7       30.16R
BOLTON FIELD   CLEAR     56  49  79 NE5       30.16R
RICKENBACK AFB CLEAR     53  48  82 NE7       30.15R
NEWARK         CLEAR     56  49  77 N5        30.16R
MARION         CLEAR     51  47  86 NE5       30.18R
LANCASTER      CLEAR     50  47  89 CALM      30.16R
ZANESVILLE     CLEAR     54  48  80 CALM      30.15R
NEW PHILLY     CLEAR     52  50  93 CALM      30.17R
$$



USA.gov is the U.S. government's official web portal to all federal, state and local government web resources and services.